Regional Weather Roundup
Issued by NWS Cleveland, OH

Home | Current Version | Previous Version | Graphics & Text | Print | Product List | Glossary On
Versions: 1 2 3 4 5 6 7 8 9 10 11 12 13 14 15 16 17 18 19 20 21 22 23 24 25 26 27 28 29 30 31 32 33 34 35 36 37 38 39 40 41 42 43 44 45 46 47 48 49 50
000
ASUS41 KCLE 042110
RWRCLE
OHIO REGIONAL WEATHER ROUNDUP
NATIONAL WEATHER SERVICE CLEVELAND, OH
500 PM EDT WED MAY 04 2016

NOTE: "FAIR" INDICATES FEW OR NO CLOUDS BELOW 12,000 FEET WITH NO
SIGNIFICANT WEATHER AND/OR OBSTRUCTIONS TO VISIBILITY.

OHZ001>008-015>018-024>027-034-035-043-044-042200-
   NORTHWEST OHIO

CITY           SKY/WX    TMP DP  RH WIND       PRES   REMARKS
DEFIANCE       LGT RAIN  49  42  77 W9        29.64R
FINDLAY        CLOUDY    50  41  71 W16       29.63R
TOLEDO EXPRESS CLOUDY    51  41  68 W12G20    29.60R
TOLEDO EXEC    CLOUDY    54  43  66 W16       29.61R
LIMA           CLOUDY    48  42  80 NW18G24   29.64R
$$

OHZ009>014-019>023-028>033-038-089-042200-
   NORTHEAST OHIO

CITY           SKY/WX    TMP DP  RH WIND       PRES   REMARKS
CLE-HOPKINS    CLOUDY    55  49  80 W8        29.64F
CLE-LAKEFRONT  CLOUDY    54  49  83 W10       29.62S
CUY CO. ARPT   PTSUNNY   59  45  58 W12       29.63R
LORAIN-ELYRIA  LGT RAIN  53  47  79 SE6       29.63S
ASHTABULA      MOSUNNY   63  37  38 MISG      29.61F
AKRON-CANTON   CLOUDY    57  43  59 W16       29.62R
WOOSTER        LGT RAIN  52  47  83 CALM      29.64S
MANSFIELD      LGT RAIN  50  46  86 W12G25    29.61S FOG
YOUNGSTOWN     CLOUDY    62  40  44 SE9       29.60F
$$

OHZ042-051>053-060>062-070>072-077>081-042200-
  SOUTHWEST OHIO

CITY           SKY/WX    TMP DP  RH WIND       PRES   REMARKS
CINC-COVINGTON PTSUNNY   56  49  77 W10       29.66S
CINC-LUNKEN    CLOUDY    55 N/A N/A SW6       29.67F
HAMILTON       PTSUNNY   60  43  53 NW15G22   29.67S
DAYTON         PTSUNNY   53  38  56 NW22G30   29.67R
WRIGHT-PAT AFB PTSUNNY   57  45  65 NW12      29.65R
DAYTON GENERAL CLOUDY    57  41  55 NW17      29.64S
WILMINGTON     CLOUDY    53  48  83 SW8       29.64F
$$

OHZ036-037-039>041-045>050-054>059-063>069-073>076-082>088-042200-
  CENTRAL AND SOUTHEAST OHIO

CITY           SKY/WX    TMP DP  RH WIND       PRES   REMARKS
COLUMBUS       CLOUDY    51  43  74 W14       29.63R
OSU AIRPORT    CLOUDY    51  48  89 W8        29.64R
BOLTON FIELD   LGT RAIN  50  48  93 W6        29.64S
RICKENBACK AFB CLOUDY    55  46  73 SW15      29.63S
NEWARK         LGT RAIN  55  45  68 SW15G24   29.63R
MARION         CLOUDY    50  46  86 W10       29.64R FOG
LANCASTER      LGT RAIN  53  47  79 SW8       29.65R
ZANESVILLE     LGT RAIN  55  48  77 W5        29.65R
NEW PHILLY     CLOUDY    61  43  51 W10G20    29.63R
$$




USA.gov is the U.S. government's official web portal to all federal, state and local government web resources and services.